Weather History for New River MCAS, NC

Change the Weather History Date:

Friday, July 5, 2013

  Actual Average Record
Temperature  
Mean Temperature 80 °F -  
Max Temperature 87 °F 85 °F 96 °F (1999)
Min Temperature 73 °F 68 °F 62 °F (1996)
Cooling Degree Days 14    
Growing Degree Days 30 (Base 50)    
Moisture  
Dew Point 73 °F    
Average Humidity 82    
Maximum Humidity 100    
Minimum Humidity 65    
Precipitation  
Precipitation 0.00 in - - ()
Sea Level Pressure  
Sea Level Pressure 30.26 in    
Wind  
Wind Speed 5 mph (SSE)    
Max Wind Speed 15 mph    
Max Gust Speed 20 mph    
Visibility 6 miles    
Events Fog , Rain    
Averages and records for this station are not official NWS values.
T = Trace of Precipitation, MM = Missing Value Source: NWS Daily Summary

Daily Weather History Graph

Daily Weather History Graph

Search for Another Location

Airport:

Trip Planner

Search our weather history database for the weather conditions in past years. The results will help you decide how hot, cold, wet, or windy it might be!

Date:

Astronomy

Jul. 05, 2013 Rise Set
Actual Time 6:02 AM EDT 8:26 PM EDT
Civil Twilight 5:32 AM EDT 8:55 PM EDT
Nautical Twilight 4:56 AM EDT 9:31 PM EDT
Astronomical Twilight 4:17 AM EDT 10:11 PM EDT
Moon 3:57 AM EDT (7/5) 6:21 PM EDT (7/5)
Length of Visible Light 15h 22m
Length of Day
14h 24m
Waning Crescent, 6% of the Moon is Illuminated
Jul 5
Waning Crescent
Jul 8
New
Jul 15
First Quarter
Jul 22
Full
Jul 29
Last Quarter

Hourly Weather History & Observations

Time (EDT) Temp. Heat Index Dew Point Humidity Pressure Visibility Wind Dir Wind Speed Gust Speed Precip Events Conditions
12:53 AM 75.2 °F - 73.4 °F 94% 30.29 in 1.5 mi Calm Calm - N/A   Partly Cloudy
1:03 AM 75.2 °F - 73.4 °F 94% 30.28 in 5.0 mi SSE 3.5 mph - N/A   Clear
1:56 AM 75.0 °F - 73.9 °F 96% 30.29 in 10.0 mi Calm Calm - N/A   Clear
2:56 AM 75.0 °F - 73.9 °F 96% 30.27 in 10.0 mi Calm Calm - N/A   Partly Cloudy
3:05 AM 75.2 °F - 73.4 °F 94% 30.27 in 2.5 mi Calm Calm - N/A   Partly Cloudy
3:14 AM 75.2 °F - 73.4 °F 94% 30.26 in 10.0 mi ESE 3.5 mph - N/A   Partly Cloudy
3:56 AM 75.0 °F - 73.9 °F 96% 30.27 in 10.0 mi Calm Calm - N/A   Clear
5:23 AM 75.2 °F - 73.4 °F 94% 30.26 in 1.0 mi Calm Calm - N/A   Clear
5:31 AM 75.2 °F - 75.2 °F 100% 30.26 in 4.0 mi Calm Calm - N/A   Clear
5:56 AM 75.0 °F - 73.9 °F 96% 30.27 in 10.0 mi Calm Calm - N/A   Clear
6:14 AM 75.2 °F - 73.4 °F 94% 30.27 in 1.2 mi Calm Calm - N/A   Clear
6:17 AM 73.4 °F - 73.4 °F 100% 30.27 in 0.5 mi Calm Calm - N/A Fog Fog
6:26 AM 75.2 °F - 73.4 °F 94% 30.27 in 5.0 mi Calm Calm - N/A   Scattered Clouds
6:56 AM 75.9 °F - 75.0 °F 97% 30.28 in 10.0 mi Calm Calm - N/A   Clear
7:09 AM 77.0 °F - 75.2 °F 94% 30.27 in 1.2 mi Calm Calm - N/A   Clear
7:17 AM 77.0 °F - 75.2 °F 94% 30.28 in 10.0 mi Calm Calm - N/A   Clear
7:54 AM 78.8 °F - 75.2 °F 89% 30.28 in 2.0 mi SSE 6.9 mph - N/A   Clear
7:56 AM 79.0 °F - 75.9 °F 90% 30.29 in 2.0 mi South 6.9 mph - N/A   Clear
8:11 AM 80.6 °F 86.2 °F 75.2 °F 84% 30.29 in 1.8 mi SSE 6.9 mph - N/A   Haze
8:27 AM 80.6 °F 86.2 °F 75.2 °F 84% 30.28 in 4.0 mi South 10.4 mph - N/A   Haze
8:43 AM 82.4 °F 89.5 °F 75.2 °F 79% 30.29 in 10.0 mi South 8.1 mph - N/A   Mostly Cloudy
8:56 AM 82.0 °F 87.9 °F 73.9 °F 76% 30.30 in 10.0 mi South 9.2 mph - N/A   Scattered Clouds
9:56 AM 82.0 °F 87.4 °F 73.0 °F 74% 30.30 in 10.0 mi South 8.1 mph - 0.00 in Rain Light Rain
10:56 AM 84.9 °F 91.4 °F 73.0 °F 67% 30.31 in 10.0 mi South 10.4 mph - N/A   Scattered Clouds
12:03 PM 86.0 °F 93.4 °F 73.4 °F 66% 30.30 in 1.5 mi SSE 11.5 mph 18.4 mph N/A   Haze
12:12 PM 86.0 °F 93.4 °F 73.4 °F 66% 30.30 in 10.0 mi SSE 10.4 mph - N/A   Scattered Clouds
1:48 PM 84.2 °F 90.9 °F 73.4 °F 70% 30.28 in 2.0 mi South 11.5 mph - N/A   Haze
1:56 PM 86.0 °F 93.8 °F 73.9 °F 67% 30.29 in 10.0 mi SSE 13.8 mph - N/A   Scattered Clouds
2:56 PM 86.0 °F 93.0 °F 73.0 °F 65% 30.28 in 10.0 mi SSE 13.8 mph - N/A   Scattered Clouds
3:32 PM 86.0 °F 93.4 °F 73.4 °F 66% 30.26 in 2.0 mi South 15.0 mph - N/A   Haze
3:42 PM 86.0 °F 93.4 °F 73.4 °F 66% 30.26 in 10.0 mi SSE 13.8 mph - N/A   Partly Cloudy
3:56 PM 86.0 °F 93.0 °F 73.0 °F 65% 30.26 in 10.0 mi SSE 10.4 mph 18.4 mph N/A   Partly Cloudy
4:34 PM 84.2 °F 89.6 °F 71.6 °F 66% 30.24 in 2.5 mi SSE 11.5 mph - N/A   Haze
4:43 PM 84.2 °F 89.6 °F 71.6 °F 66% 30.23 in 10.0 mi South 12.7 mph - N/A   Partly Cloudy
4:56 PM 84.9 °F 90.7 °F 72.0 °F 65% 30.24 in 10.0 mi SSE 13.8 mph 19.6 mph N/A   Partly Cloudy
5:56 PM 82.9 °F 88.0 °F 72.0 °F 69% 30.23 in 10.0 mi South 13.8 mph - N/A   Clear
6:24 PM 82.4 °F 88.2 °F 73.4 °F 74% 30.22 in 2.0 mi SSE 12.7 mph - N/A   Haze
6:29 PM 82.4 °F 88.2 °F 73.4 °F 74% 30.22 in 7.0 mi SSE 13.8 mph - N/A   Mostly Cloudy
6:43 PM 82.4 °F 88.2 °F 73.4 °F 74% 30.22 in 10.0 mi SSE 11.5 mph - N/A   Mostly Cloudy
6:50 PM 82.4 °F 87.2 °F 71.6 °F 70% 30.22 in 1.8 mi South 12.7 mph 19.6 mph N/A   Haze
6:56 PM 82.0 °F 86.7 °F 72.0 °F 71% 30.23 in 1.5 mi SSE 12.7 mph - N/A   Haze
7:05 PM 82.4 °F 87.2 °F 71.6 °F 70% 30.23 in 10.0 mi SSE 10.4 mph - N/A   Partly Cloudy
7:17 PM 82.4 °F 87.2 °F 71.6 °F 70% 30.23 in 0.8 mi SSE 10.4 mph - N/A   Haze
7:21 PM 80.6 °F 84.6 °F 71.6 °F 74% 30.23 in 0.2 mi South 10.4 mph - N/A   Haze
7:43 PM 80.6 °F 84.6 °F 71.6 °F 74% 30.23 in 0.8 mi South 6.9 mph - N/A   Haze
7:49 PM 80.6 °F 84.6 °F 71.6 °F 74% 30.23 in 2.0 mi South 8.1 mph - N/A   Haze
7:56 PM 80.1 °F 83.6 °F 71.1 °F 74% 30.25 in 10.0 mi South 5.8 mph - N/A   Clear
8:17 PM 78.8 °F - 71.6 °F 78% 30.24 in 0.5 mi South 5.8 mph - N/A   Haze
8:20 PM 78.8 °F - 71.6 °F 78% 30.24 in 1.2 mi South 5.8 mph - N/A   Haze
8:28 PM 78.8 °F - 71.6 °F 78% 30.24 in 5.0 mi South 4.6 mph - N/A   Haze
8:38 PM 78.8 °F - 73.4 °F 83% 30.24 in 1.8 mi South 4.6 mph - N/A   Haze
8:51 PM 78.8 °F - 73.4 °F 83% 30.24 in 10.0 mi South 4.6 mph - N/A   Clear
8:56 PM 78.1 °F - 73.0 °F 84% 30.25 in 10.0 mi South 3.5 mph - N/A   Clear
9:27 PM 75.2 °F - 73.4 °F 94% 30.24 in 1.2 mi South 3.5 mph - N/A   Clear
9:30 PM 75.2 °F - 73.4 °F 94% 30.25 in 0.8 mi South 3.5 mph - N/A   Clear
9:37 PM 77.0 °F - 73.4 °F 89% 30.25 in 1.2 mi Calm Calm - N/A   Clear
9:40 PM 77.0 °F - 73.4 °F 89% 30.25 in 5.0 mi Calm Calm - N/A   Clear
9:56 PM 77.0 °F - 73.0 °F 88% 30.27 in 10.0 mi South 3.5 mph - N/A   Clear
10:24 PM 75.2 °F - 73.4 °F 94% 30.27 in 2.0 mi South 4.6 mph - N/A   Clear
10:33 PM 75.2 °F - 73.4 °F 94% 30.27 in 10.0 mi South 4.6 mph - N/A   Clear
10:56 PM 75.9 °F - 73.0 °F 91% 30.28 in 10.0 mi Calm Calm - N/A   Clear
11:56 PM 73.9 °F - 72.0 °F 93% 30.28 in 10.0 mi Calm Calm - N/A   Clear